San Pedro, Argentina

6:16 AM -03 en Noviembre 25, 2017 (GMT -0300)
San Pedro

Tiempo Historia de 87046 - Septiembre, 2017

Change the Weather History Date:

Miércoles, Septiembre 13, 2017

  Actual Average Record
Temperature  
Temperatura media 60 ° F -  
Temperatura máxima 72 ° F 78 ° F - ()
Temperatura mínima 47 ° F 53 ° F - ()
Degree Days  
Grados día de calefacción 6    
Growing Degree Days 10 (Base 50)    
Moisture  
Punto de rocío 42 ° F    
Average Humidity 50    
Maximum Humidity 76    
Minimum Humidity 26    
Precipitación  
Precipitación 0.00 pul - - ()
Presión al nivel del mar  
Presión al nivel del mar 29.99 pul    
Viento  
Velocidad del viento 5 mph ()    
Velocidad máxima del viento 12 mph    
Max Gust Speed 23 mph    
Visibilidad 6.5 Millas    
Eventos      
T = Trace of Precipitation, MM = Missing Value Source: Averaged Metar Reports

Daily Weather History Graph

Daily Weather History Graph

Search for Another Location

Airport or City:

Trip Planner

Search our weather history database for the weather conditions in past years. The results will help you decide how hot, cold, wet, or windy it might be!

Date:

Astronomía

Sep. 13, 2017 Salida Puesta
Hora real 7:19 AM -03 7:13 PM -03
Crepúsculo civil 6:56 AM -03 7:36 PM -03
Crepúsculo náutico 6:30 AM -03 8:02 PM -03
Crepúsculo astronómico 6:03 AM -03 8:28 PM -03
Luna 1:42 AM -03 (9/13) 12:56 PM -03 (9/13)
Horas de luz 12h 39m
Horas de luz
11h 54m
Cuarto menguante, 46% of the Moon is Illuminated
Sep 13
Cuarto menguante
Sep 20
Nueva
Sep 27
Cuarto creciente
Oct 5
Luna llena
Oct 12
Cuarto menguante

Hourly Weather History & Observations

Hora (-03) Temp. Punto de rocío Humedad Presión Visibilidad Wind Dir Velocidad del viento Velocidad de ráfagas Precip Eventos Condiciones
12:00 AM 60 ° F 38 ° F 33%  pul 9 mi Sur 3.5 mph - -   Parcialmente nublado
12:00 AM 59.0 ° F 39.2 ° F 48% 30.12 pul - Sur 3.5 mph - N/A   Despejado
1:00 AM 57.2 ° F 41.0 ° F 55% 30.12 pul - SO 2.3 mph - N/A   Despejado
2:00 AM 50.0 ° F 42.8 ° F 76% 30.12 pul - NO 4.6 mph - N/A   Despejado
3:00 AM 51 ° F 39 ° F 54%  pul 9 mi Oeste 4.6 mph - -   Nubes dispersas
3:00 AM 51.8 ° F 39.2 ° F 62% 30.09 pul - Oeste 4.6 mph - N/A   Despejado
4:00 AM 50.0 ° F 37.4 ° F 62% 30.06 pul - NO 5.8 mph - N/A   Despejado
5:00 AM 50.0 ° F 39.2 ° F 66% 30.04 pul - NO 6.9 mph - N/A   Despejado
6:00 AM 52 ° F 40 ° F 55%  pul 9 mi NO 2.3 mph - -   Parcialmente nublado
6:00 AM 51.8 ° F 41.0 ° F 67% 30.04 pul - NO 2.3 mph - N/A   Despejado
7:00 AM 53.6 ° F 41.0 ° F 62% 30.04 pul - NO 3.5 mph - N/A   Despejado
8:00 AM 53.6 ° F 41.0 ° F 62% 30.04 pul - Sin viento Sin viento - N/A   Despejado
9:00 AM 56 ° F 40 ° F 44%  pul 6 mi Sin viento Sin viento - -   Bruma
9:00 AM 57.2 ° F 41.0 ° F 55% 30.04 pul - Sin viento Sin viento - N/A   Despejado
10:00 AM 60.8 ° F 39.2 ° F 45% 30.04 pul - Norte - - N/A   Despejado
11:00 AM 64.4 ° F 41.0 ° F 42% 30.01 pul - ESE 4.6 mph - N/A   Despejado
12:00 PM 69 ° F 43 ° F 27%  pul 6 mi Este 11.5 mph - -   Bruma
12:00 PM 69.8 ° F 42.8 ° F 38% 29.98 pul 6.2 mi Este 11.5 mph - N/A   Parcialmente nublado
1:00 PM 69.8 ° F 42.8 ° F 38% 29.92 pul 6.2 mi Este 11.5 mph 23.0 mph N/A   Parcialmente nublado
2:00 PM 69.8 ° F 44.6 ° F 40% 29.89 pul 6.2 mi Este 10.4 mph - N/A   Parcialmente nublado
3:00 PM 71 ° F 44 ° F 26%  pul 6 mi Este 10.4 mph - -   Bruma
3:00 PM 71.6 ° F 44.6 ° F 38% 29.86 pul - Este 10.4 mph - N/A   Despejado
4:00 PM 71.6 ° F 44.6 ° F 38% 29.83 pul 5.0 mi Este 11.5 mph - N/A   Desconocido
5:00 PM 69.8 ° F 44.6 ° F 40% 29.83 pul 5.0 mi Este 11.5 mph - N/A   Desconocido
6:00 PM 68 ° F 45 ° F 32%  pul 5 mi Este 9.2 mph - -   Bruma
6:00 PM 68.0 ° F 44.6 ° F 43% 29.89 pul 5.0 mi Este 9.2 mph - N/A   Desconocido
7:00 PM 66.2 ° F 44.6 ° F 46% 29.89 pul 5.0 mi Este 6.9 mph - N/A   Desconocido
8:00 PM 62.6 ° F 46.4 ° F 55% 29.95 pul - Este 4.6 mph - N/A   Despejado
9:00 PM 58 ° F 47 ° F 57%  pul 9 mi Sin viento Sin viento - -  
9:00 PM 57.2 ° F 46.4 ° F 67% 29.98 pul - Sin viento Sin viento - N/A   Despejado
10:00 PM 55.4 ° F 44.6 ° F 67% 30.01 pul - SO 4.6 mph - N/A   Despejado
11:00 PM 57.2 ° F 42.8 ° F 59% 30.01 pul - SO 10.4 mph - N/A   Despejado